Location: Unspecified
(0.0000°N, 0.0000°E)
Time: 22:48:36
(UTC+00:00)

USA 274 DEB - Pass Details

Date: 18 June 2023
Orbit: 1044 x 1167 km, 63.4° (Epoch: 24 September)

Event Time Altitude Azimuth Distance (km) Brightness Sun altitude
Rises 20:44:30 0° 3° (N) 3,999 ? -36.9°
Reaches altitude 10° 20:47:53 10° 17° (NNE) 3,053 ? -37.6°
Enters shadow 20:48:47 13° 23° (NNE) 2,837 ? -37.8°
